METEOR 2-5 DEB

Satellite information

Favourite Embed

Satellite Type and Status

DEBRISIN ORBIT

Key statistics

Satellite METEOR 2-5 DEB at a glance.

Uptime

16686

Days in orbit

Revolutions

≈ 14.4

Per day

Orbit

LEO

Low Earth Orbit

Inclination

81.2

Latest

Satellite identification and parameters

Extended collection of information and parameters for METEOR 2-5 DEB.

Object identification

Identified? True

Debris? True

Object name: METEOR 2-5 DEB

International designator: 1979-095W

Object number (NORAD): 35255

Object ID (CCSDS): 35255

Country: COMMONWEALTH OF INDEPENDENT STATES (CIS)

Current information (Y/N): Y

RCS size: SMALL

Orbital parameters

Period: 99.918 minutes

Inclination: 81.201 deg

SMA: 7132.716 km

Apoapsis: 764.564 km

Periapsis: 744.598 km

RAAN: 102.763 deg

Eccentricy: 0.0013996

Argument of periapsis: 342.9659 deg

Mean anomaly: 17.1057 deg

Mean motion: 14.41187075 rev/day

Mean motion (dot): 0.00003508 rev/day2

B* drag term: 0.0010824 1/REarth

Two-line elements (TLE)

Creation date: July 4, 2025, 6:39 p.m.

Reference frame: TEME

Reference center: EARTH

Epoch: July 4, 2025, 11:18 a.m. UTC

TLE line 0: 0 METEOR 2-5 DEB

TLE line 1: 1 35255U 79095W 25185.47111267 .00003508 00000-0 10824-2 0 9993

TLE line 2: 2 35255 81.2010 102.7630 0013996 342.9659 17.1057 14.41187075624314

Live tracking on map

Real-time ground track for satellite METEOR 2-5 DEB.

In-orbit conjunctions

A list of the most updated potential collisions computed for object METEOR 2-5 DEB.

Target Orbit TCA Probability of collision Miss distance Type
COSMOS 1818 LEO 2025-01-24 16:26:15 0.0001681694 595.0 (m) PAYLOAD
CZ-6A DEB SSO 2024-08-22 07:38:47 0.0002123689 44.0 (m) DEBRIS
ITAMSAT SSO 2024-07-28 18:06:46 0.0001239682 421.0 (m) PAYLOAD

Associated space launch

Second generation soviet meteorological satellite

METEOR 2-5 DEB was lifted into orbit during the mission ‘Vostok 8A92M | Meteor-2 5’, on board a Vostok 8A92M space rocket.

The launch took place on Oct. 31, 1979, 9:25 a.m. from 43/4 (43R).

For more information about the launch, click the button.

Launch to space Vostok 8A92M | Meteor-2 5
Vostok 8A92M | Meteor-2 5

Agency: N/A

Status: Launch Successful

Launch date: Oct. 31, 1979, 9:25 a.m. UTC

Rocket: Vostok 8A92M

Launch pad: 43/4 (43R)

Location: Plesetsk Cosmodrome, Russian Federation

...

Latest news about this satellite

There are no fresh news available about this satellite. Check back as we update our databases every day.


Newsletter sign-up

Weekly statistics, charts and insights to help you stay on top of the space industry.